Location: Nairn
(57.5833°N, 3.8667°W)
Time: 19:21:02
(UTC+00:00)

Meteor 2-5 Rocket - Pass Details

Date: 07 August 2020
Orbit: 832 x 912 km, 81.2° (Epoch: 24 September)

Event Time Altitude Azimuth Distance (km) Brightness Sun altitude
Rises 01:57:34 0° 344° (NNW) 3,477 7.7 -13.4°
Reaches altitude 10° 02:00:02 10° 345° (NNW) 2,523 6.9 -13.3°
Maximum altitude 02:05:46 88° 73° (ENE) 862 3.7 -13.0°
Drops below altitude 10° 02:11:22 10° 166° (SSE) 2,459 5.7 -12.7°
Enters shadow 02:11:43 - 166° (SSE) 2,593 5.8 -12.6°
